Fremont, MI

11:08 AM EST on December 10, 2019 (GMT -0500)
Fremont

Weather History for KFFX - October, 2019

Change the Weather History Date:

Friday, October 4, 2019

  Actual Average (WUND) Record (WUND)
Temperature  
Mean Temperature 50 °F -  
Max Temperature 53 °F - - (-1)
Min Temperature 46 °F - - (-1)
Degree Days  
Heating Degree Days 16    
Moisture  
Dew Point 40 °F    
Average Humidity 70    
Maximum Humidity 97    
Minimum Humidity 49    
Precipitation  
Precipitation 0.00 in - - ()
Sea Level Pressure  
Sea Level Pressure 30.35 in    
Wind  
Wind Speed 5 mph ()    
Max Wind Speed 10 mph    
Max Gust Speed 20 mph    
Visibility 9.9 miles    
Events      
Averages and records for this station are not official NWS values.
T = Trace of Precipitation, MM = Missing Value Source: Averaged Metar Reports

Daily Weather History Graph

Daily Weather History Graph

Search for Another Location

Airport or City:

Astronomy

Oct. 04, 2019 Rise Set
Actual Time 7:44 AM EDT 7:20 PM EDT
Civil Twilight 7:16 AM EDT 7:48 PM EDT
Nautical Twilight 6:42 AM EDT 8:21 PM EDT
Astronomical Twilight 6:09 AM EDT 8:54 PM EDT
Moon 2:25 PM EDT (10/4) 11:38 PM EDT (10/4)
Length of Visible Light 12h 32m
Length of Day
11h 35m
Waxing Crescent, 39% of the Moon is Illuminated
Oct 4
Waxing Crescent
Oct 5
First Quarter
Oct 13
Full
Oct 21
Last Quarter
Oct 27
New

Hourly Weather History & Observations

Time (EDT) Temp. Dew Point Humidity Pressure Visibility Wind Dir Wind Speed Gust Speed Precip Events Conditions
12:15 AM 52.7 °F 41.5 °F 66% 30.18 in 10.0 mi WNW 4.6 mph - N/A   Mostly Cloudy
12:35 AM 52.9 °F 42.4 °F 68% 30.18 in 10.0 mi WNW 6.9 mph - N/A   Overcast
12:40 AM 52.9 °F 42.4 °F 68% 30.18 in 10.0 mi WNW 6.9 mph - N/A   Overcast
12:58 AM 53.2 °F 42.8 °F 68% 30.20 in 10.0 mi WNW 6.9 mph - N/A   Overcast
1:16 AM 52.0 °F 49.1 °F 90% 30.20 in 5.0 mi NNW 6.9 mph 19.6 mph N/A   Drizzle
1:35 AM 51.4 °F 49.5 °F 93% 30.21 in 10.0 mi NNW 5.8 mph - N/A   Overcast
1:36 AM 51.4 °F 49.5 °F 93% 30.21 in 10.0 mi North 5.8 mph - N/A   Overcast
1:55 AM 51.4 °F 49.3 °F 92% 30.22 in 10.0 mi North 8.1 mph - N/A   Overcast
1:56 AM 51.4 °F 49.3 °F 92% 30.22 in 10.0 mi North 8.1 mph - N/A   Overcast
2:19 AM 50.9 °F 48.6 °F 92% 30.23 in 10.0 mi North 6.9 mph - N/A   Scattered Clouds
2:37 AM 49.5 °F 48.2 °F 95% 30.24 in 10.0 mi North 5.8 mph - N/A   Scattered Clouds
2:55 AM 49.1 °F 47.7 °F 95% 30.25 in 10.0 mi North 3.5 mph - N/A   Scattered Clouds
3:15 AM 49.1 °F 47.3 °F 93% 30.25 in 10.0 mi NNW 5.8 mph - N/A   Clear
3:16 AM 49.1 °F 47.3 °F 93% 30.25 in 10.0 mi NNW 4.6 mph - N/A   Clear
3:35 AM 48.2 °F 46.9 °F 95% 30.25 in 10.0 mi North 4.6 mph - N/A   Clear
3:40 AM 48.2 °F 46.8 °F 95% 30.25 in 10.0 mi Calm Calm - N/A   Clear
3:58 AM 48.2 °F 46.6 °F 94% 30.26 in 10.0 mi NNE 3.5 mph - N/A   Clear
4:16 AM 47.3 °F 46.4 °F 97% 30.27 in 10.0 mi North 4.6 mph - N/A   Clear
4:35 AM 47.1 °F 46.2 °F 97% 30.28 in 10.0 mi North 4.6 mph - N/A   Clear
4:36 AM 47.1 °F 46.2 °F 97% 30.28 in 10.0 mi North 4.6 mph - N/A   Clear
4:55 AM 47.1 °F 45.9 °F 95% 30.28 in 10.0 mi North 10.4 mph - N/A   Clear
5:19 AM 47.8 °F 45.0 °F 90% 30.30 in 10.0 mi North 6.9 mph - N/A   Scattered Clouds
5:37 AM 47.3 °F 45.0 °F 92% 30.30 in 10.0 mi North 3.5 mph - N/A   Scattered Clouds
5:55 AM 46.8 °F 45.1 °F 94% 30.31 in 10.0 mi Calm Calm - N/A   Mostly Cloudy
6:15 AM 46.0 °F 45.0 °F 96% 30.32 in 10.0 mi Calm Calm - N/A   Scattered Clouds
6:35 AM 46.9 °F 45.9 °F 96% 30.32 in 10.0 mi NNE 4.6 mph - N/A   Overcast
6:58 AM 47.7 °F 46.0 °F 94% 30.33 in 10.0 mi Calm Calm - N/A   Overcast
7:16 AM 48.2 °F 45.7 °F 91% 30.33 in 10.0 mi NNE 4.6 mph - N/A   Overcast
7:35 AM 48.2 °F 44.6 °F 87% 30.34 in 10.0 mi NNE 3.5 mph - N/A   Overcast
7:36 AM 48.2 °F 44.6 °F 87% 30.34 in 10.0 mi North 3.5 mph - N/A   Overcast
7:55 AM 47.8 °F 44.6 °F 89% 30.35 in 10.0 mi North 3.5 mph - N/A   Overcast
7:56 AM 47.8 °F 44.6 °F 89% 30.35 in 10.0 mi North 4.6 mph - N/A   Overcast
8:19 AM 47.8 °F 43.9 °F 86% 30.36 in 10.0 mi Calm Calm - N/A   Overcast
8:37 AM 48.2 °F 44.1 °F 86% 30.37 in 10.0 mi NNE 3.5 mph - N/A   Overcast
8:55 AM 48.6 °F 43.2 °F 82% 30.38 in 10.0 mi Calm Calm - N/A   Overcast
9:15 AM 49.1 °F 41.7 °F 76% 30.39 in 10.0 mi North 5.8 mph - N/A   Overcast
9:16 AM 49.1 °F 41.4 °F 75% 30.39 in 10.0 mi North 4.6 mph - N/A   Overcast
9:35 AM 49.3 °F 38.5 °F 66% 30.40 in 10.0 mi NNE 6.9 mph - N/A   Overcast
9:40 AM 49.3 °F 38.3 °F 66% 30.40 in 10.0 mi NNE 5.8 mph - N/A   Overcast
9:58 AM 50.0 °F 37.6 °F 62% 30.40 in 10.0 mi NNE 5.8 mph - N/A   Overcast
10:16 AM 50.4 °F 38.1 °F 63% 30.40 in 10.0 mi NNE 5.8 mph - N/A   Overcast
10:35 AM 50.4 °F 37.2 °F 61% 30.41 in 10.0 mi NE 6.9 mph - N/A   Overcast
10:55 AM 51.4 °F 38.1 °F 60% 30.41 in 10.0 mi NE 4.6 mph - N/A   Overcast
10:56 AM 51.4 °F 38.1 °F 60% 30.41 in 10.0 mi NNE 6.9 mph - N/A   Overcast
11:19 AM 51.3 °F 35.6 °F 55% 30.41 in 10.0 mi NNE 8.1 mph - N/A   Overcast
11:37 AM 51.4 °F 35.6 °F 55% 30.42 in 10.0 mi NE 8.1 mph - N/A   Overcast
11:55 AM 51.8 °F 35.6 °F 54% 30.42 in 10.0 mi ENE 6.9 mph - N/A   Overcast
12:15 PM 51.3 °F 35.1 °F 54% 30.42 in 10.0 mi NE 5.8 mph - N/A   Overcast
12:16 PM 51.4 °F 35.1 °F 54% 30.42 in 10.0 mi ENE 4.6 mph - N/A   Overcast
12:35 PM 51.8 °F 34.7 °F 52% 30.42 in 10.0 mi NE 4.6 mph - N/A   Overcast
12:40 PM 51.8 °F 33.8 °F 50% 30.42 in 10.0 mi NE 4.6 mph - N/A   Overcast
12:58 PM 51.8 °F 35.4 °F 54% 30.42 in 10.0 mi NNE 4.6 mph - N/A   Overcast
1:16 PM 51.8 °F 36.0 °F 55% 30.42 in 10.0 mi NE 6.9 mph - N/A   Overcast
1:35 PM 51.8 °F 35.8 °F 54% 30.42 in 10.0 mi NNE 5.8 mph - N/A   Overcast
1:55 PM 51.4 °F 36.0 °F 56% 30.42 in 10.0 mi ENE 6.9 mph - N/A   Overcast
1:56 PM 51.4 °F 35.8 °F 55% 30.42 in 10.0 mi ENE 5.8 mph - N/A   Overcast
2:19 PM 52.0 °F 34.3 °F 51% 30.42 in 10.0 mi ENE 5.8 mph - N/A   Overcast
2:37 PM 52.5 °F 34.3 °F 50% 30.41 in 10.0 mi ENE 5.8 mph - N/A   Overcast
2:55 PM 52.7 °F 34.2 °F 49% 30.41 in 10.0 mi East 8.1 mph - N/A   Overcast
3:15 PM 52.9 °F 34.3 °F 49% 30.41 in 10.0 mi ENE 9.2 mph - N/A   Overcast
3:16 PM 53.1 °F 34.2 °F 49% 30.41 in 10.0 mi ENE 9.2 mph - N/A   Overcast
3:35 PM 52.0 °F 34.5 °F 51% 30.41 in 10.0 mi East 8.1 mph - N/A   Overcast
3:40 PM 51.8 °F 33.4 °F 50% 30.41 in 10.0 mi ENE 5.8 mph - N/A   Overcast
3:58 PM 52.2 °F 33.3 °F 49% 30.40 in 10.0 mi ENE 5.8 mph - N/A   Overcast
4:16 PM 52.2 °F 34.9 °F 52% 30.40 in 10.0 mi NE 8.1 mph - N/A   Overcast
4:35 PM 51.3 °F 34.5 °F 53% 30.40 in 10.0 mi East 6.9 mph - N/A   Overcast
4:36 PM 51.3 °F 34.5 °F 53% 30.40 in 10.0 mi East 6.9 mph - N/A   Overcast
4:55 PM 51.8 °F 35.6 °F 54% 30.40 in 10.0 mi ENE 4.6 mph - N/A   Overcast
5:19 PM 52.0 °F 34.7 °F 52% 30.39 in 10.0 mi ENE 5.8 mph - N/A   Overcast
5:37 PM 52.2 °F 34.7 °F 51% 30.39 in 10.0 mi ENE 6.9 mph - N/A   Overcast
5:56 PM 52.2 °F 34.9 °F 52% 30.39 in 10.0 mi ENE 5.8 mph - N/A   Overcast
6:15 PM 51.8 °F 35.6 °F 54% 30.39 in 10.0 mi ENE 5.8 mph - N/A   Overcast
6:35 PM 51.6 °F 36.1 °F 56% 30.39 in 10.0 mi ENE 3.5 mph - N/A   Overcast
6:58 PM 51.1 °F 35.6 °F 55% 30.39 in 10.0 mi East 5.8 mph - N/A   Overcast
7:16 PM 50.9 °F 36.7 °F 58% 30.39 in 10.0 mi East 4.6 mph - N/A   Overcast
7:35 PM 50.7 °F 37.2 °F 60% 30.38 in 10.0 mi ENE 8.1 mph - N/A   Overcast
7:36 PM 50.7 °F 37.2 °F 60% 30.38 in 10.0 mi ENE 8.1 mph - N/A   Overcast
7:55 PM 50.5 °F 37.8 °F 62% 30.39 in 10.0 mi East 4.6 mph - N/A   Overcast
8:19 PM 50.4 °F 38.5 °F 64% 30.39 in 10.0 mi East 3.5 mph - N/A   Overcast
8:37 PM 50.2 °F 38.5 °F 64% 30.39 in 10.0 mi East 4.6 mph - N/A   Overcast
8:55 PM 50.0 °F 37.9 °F 63% 30.39 in 10.0 mi East 4.6 mph - N/A   Overcast
8:56 PM 50.2 °F 37.8 °F 62% 30.39 in 10.0 mi East 3.5 mph - N/A   Overcast
9:15 PM 50.0 °F 37.8 °F 63% 30.39 in 10.0 mi East 9.2 mph - N/A   Overcast
9:16 PM 50.0 °F 37.6 °F 62% 30.39 in 10.0 mi East 9.2 mph - N/A   Overcast
9:35 PM 50.0 °F 37.4 °F 62% 30.39 in 10.0 mi East 6.9 mph - N/A   Overcast
9:40 PM 49.8 °F 37.6 °F 63% 30.39 in 10.0 mi East 6.9 mph - N/A   Overcast
9:58 PM 49.3 °F 37.2 °F 63% 30.39 in 10.0 mi East 5.8 mph - N/A   Overcast
10:16 PM 49.1 °F 37.2 °F 64% 30.39 in 10.0 mi East 5.8 mph - N/A   Overcast
10:35 PM 48.9 °F 36.5 °F 62% 30.40 in 10.0 mi East 5.8 mph - N/A   Overcast
10:36 PM 48.9 °F 36.5 °F 62% 30.40 in 10.0 mi East 5.8 mph - N/A   Overcast
10:55 PM 48.6 °F 36.3 °F 63% 30.39 in 10.0 mi East 6.9 mph - N/A   Overcast
10:56 PM 48.6 °F 36.1 °F 62% 30.39 in 10.0 mi East 5.8 mph - N/A   Overcast
11:19 PM 48.2 °F 36.3 °F 63% 30.39 in 10.0 mi East 5.8 mph - N/A   Overcast
11:37 PM 48.2 °F 36.3 °F 63% 30.38 in 10.0 mi East 5.8 mph - N/A   Overcast
11:55 PM 47.5 °F 37.6 °F 69% 30.38 in 10.0 mi East 3.5 mph - N/A   Overcast
11:56 PM 47.5 °F 37.6 °F 69% 30.38 in 10.0 mi East 3.5 mph - N/A   Overcast